GFSSGP_925_spd_003.txt.gz
Wind_Speed
15 13 8 3 4 2 2 1 2 3 2 2 7 3 6 2 5 2 3 9 4 2 10 17 16 17 16 16 17 17 17 18 15 14 12 12 13 14 13 13 12 11 10 10 10 9 7 5 4
13 9 2 1 2 2 3 1 7 6 2 5 4 3 2 2 1 2 2 8 5 6 7 13 17 16 17 19 18 19 18 19 17 17 16 15 14 14 15 14 13 11 11 12 12 11 9 7 6
7 4 2 1 1 2 5 2 8 2 3 4 3 1 1 2 2 2 4 7 8 8 10 11 13 15 18 20 18 18 20 20 19 20 20 19 17 16 16 15 14 12 12 13 13 13 11 9 8
4 3 3 2 2 2 5 10 4 3 3 4 2 3 2 3 3 3 5 9 9 10 12 12 15 17 17 18 18 19 20 20 23 23 23 23 20 18 18 16 14 12 11 12 15 15 14 11 9
2 1 2 1 3 3 7 6 7 9 4 5 6 4 2 2 2 5 4 7 10 11 11 11 12 13 14 14 17 19 21 23 25 26 27 26 24 21 19 18 16 14 12 11 13 15 16 15 13
2 1 3 3 5 4 6 7 7 10 9 4 4 4 3 2 4 2 1 2 2 4 5 5 7 10 13 15 18 20 21 22 21 22 25 27 26 23 21 20 18 16 14 13 13 16 15 16 15
2 2 4 5 7 6 4 5 6 9 8 7 4 3 1 6 5 5 5 2 2 3 2 4 7 11 15 18 19 20 20 20 20 18 18 19 25 23 22 22 20 17 14 14 13 15 17 16 14
2 3 4 3 5 11 3 5 1 10 11 4 4 4 3 4 9 8 5 3 2 3 5 8 11 13 15 14 17 19 19 19 17 15 15 15 16 20 20 22 20 18 14 14 14 15 16 17 14
3 4 5 5 3 4 3 6 3 0 4 2 4 2 2 12 11 8 4 1 2 5 9 12 12 12 12 14 14 16 17 16 14 12 12 12 10 12 14 18 21 20 16 14 14 14 17 17 15
5 4 5 5 5 8 5 10 7 6 4 4 3 3 8 11 10 8 5 3 4 6 7 9 13 12 12 12 13 13 11 10 11 11 12 11 10 11 17 19 21 19 16 14 14 14 15 15 13
6 10 11 12 17 11 7 7 7 8 6 9 13 11 12 11 9 6 4 3 5 7 10 10 14 11 11 10 9 9 11 14 12 12 13 11 11 12 13 14 16 18 17 13 11 12 13 15 14
8 10 10 8 6 5 5 6 7 11 10 3 11 14 13 11 9 6 3 3 6 10 12 12 11 10 11 11 8 10 12 11 9 10 8 8 11 12 12 12 15 14 13 11 9 9 12 14 14
8 13 5 6 4 4 6 5 7 12 9 3 10 13 12 9 8 5 3 2 6 10 11 10 10 10 11 10 9 10 10 9 9 8 5 7 9 7 6 10 11 13 11 10 8 9 13 15 15
6 9 1 1 1 1 4 2 3 3 7 8 13 14 11 10 10 6 4 4 5 9 10 10 9 9 11 8 10 11 11 9 8 8 7 7 7 5 5 8 12 13 11 8 9 12 14 15 15
4 5 2 2 3 0 3 5 9 8 9 11 12 11 10 9 9 7 6 4 4 7 9 9 9 8 9 9 10 11 10 9 7 5 5 8 8 6 6 8 10 10 11 11 12 11 13 13 13
3 1 2 1 4 1 7 10 12 8 13 14 13 11 10 11 11 8 6 4 3 6 8 8 8 7 10 11 11 11 10 9 8 6 6 7 8 8 7 10 10 10 11 11 12 14 15 15 13
2 6 6 5 5 3 9 9 10 3 13 13 13 13 12 10 9 9 7 5 3 5 7 7 8 9 12 12 12 10 8 7 6 6 5 6 7 9 12 11 10 14 13 11 14 14 14 15 13
9 5 3 4 2 5 7 14 19 8 12 15 14 13 12 12 12 11 9 6 4 5 7 7 7 11 14 12 10 8 4 4 5 3 4 2 5 4 10 12 14 15 13 12 14 14 13 14 16
9 5 5 5 5 4 10 12 16 12 11 13 14 15 14 14 12 10 9 6 5 6 7 6 7 11 14 11 8 10 8 6 3 6 5 7 5 4 10 12 12 11 13 12 14 15 17 16 18
6 5 6 6 5 4 10 14 16 12 8 14 16 16 17 14 11 12 11 8 6 5 5 5 6 10 12 12 9 8 6 4 6 6 7 10 4 7 9 11 10 9 11 12 17 19 17 17 25
6 7 4 9 3 5 7 11 8 8 5 6 11 15 16 18 16 13 13 10 7 4 3 3 6 9 11 13 11 7 5 4 6 9 14 11 11 11 7 11 11 11 12 16 18 21 18 20 19
11 11 7 5 4 9 1 7 7 9 11 9 11 15 17 17 15 13 14 11 9 5 2 2 6 8 8 10 9 8 9 7 4 5 10 16 21 18 13 14 16 17 15 14 15 19 22 21 22
9 6 5 4 7 3 4 4 5 4 9 13 13 15 17 19 18 15 16 14 10 6 3 0 4 6 6 6 7 7 7 7 4 2 7 11 14 15 18 18 17 20 20 18 19 24 25 22 22
4 4 3 2 2 4 7 6 4 5 8 6 6 10 17 19 18 15 18 14 11 8 4 2 2 3 3 5 6 9 9 7 7 7 6 8 11 15 16 14 14 16 18 18 24 25 26 23 24
8 6 5 4 4 6 2 4 8 11 14 13 13 6 14 18 18 16 15 15 13 11 7 4 1 1 1 1 5 8 9 10 11 14 9 9 11 11 16 17 16 21 23 23 28 30 25 25 28
13 12 7 4 4 8 3 5 6 8 5 5 7 4 13 18 17 16 17 17 15 12 10 6 3 1 0 1 3 6 8 8 9 11 12 17 16 11 9 12 17 24 28 24 22 18 18 21 25
7 7 6 8 1 4 3 5 11 6 9 4 3 8 13 17 18 17 17 17 15 13 11 10 6 3 1 1 1 4 7 9 9 12 15 13 11 10 7 4 8 14 14 16 20 20 20 21 21
13 12 5 3 5 7 4 3 7 13 10 1 5 8 13 16 16 15 15 18 15 13 9 9 8 5 4 2 1 2 5 7 9 8 8 8 5 3 7 9 12 18 16 15 14 13 13 17 13
7 9 3 3 4 7 8 5 5 8 4 5 6 10 15 18 18 15 15 18 16 12 10 9 10 8 7 5 3 1 4 5 8 10 10 8 8 9 12 14 12 18 16 13 11 8 10 9 13
22 18 15 10 9 4 5 10 5 7 3 5 3 7 11 17 17 14 16 18 16 13 11 11 11 10 7 7 5 3 4 6 8 9 12 11 11 11 14 16 17 15 16 14 11 11 10 13 12

GFSSGP_925_spd_006.txt.gz
Wind_Speed
14 13 8 7 7 6 8 3 5 6 4 3 5 3 4 5 5 6 3 5 4 2 8 9 14 16 17 16 15 16 17 16 15 14 13 12 13 15 16 14 13 12 11 10 11 10 10 9 9
12 9 6 4 7 8 2 3 6 7 3 5 5 4 5 3 2 1 4 6 4 3 4 8 13 17 18 18 17 18 18 18 18 17 16 15 15 16 17 16 15 13 13 12 12 12 12 10 9
11 9 8 4 6 8 5 4 5 3 6 6 3 4 1 1 4 1 3 6 5 5 6 8 13 17 16 16 18 18 18 19 20 19 20 21 20 19 19 18 16 15 14 13 14 14 13 11 10
7 7 5 9 9 1 7 9 7 5 5 7 5 4 3 2 5 4 4 5 5 6 7 9 14 16 16 18 19 20 19 20 18 21 24 24 24 23 21 20 17 16 14 14 14 13 15 15 12
9 6 10 9 8 4 7 9 8 8 6 4 5 3 2 4 4 5 4 3 6 8 8 10 13 13 14 15 17 18 19 19 20 22 24 26 27 26 23 22 20 17 15 13 13 12 13 16 14
7 4 10 12 4 3 7 6 7 8 6 4 4 4 2 4 8 5 4 2 4 4 5 6 9 10 13 15 16 18 19 20 20 20 21 23 24 26 25 23 22 19 17 15 15 13 13 15 16
12 8 14 12 11 9 4 5 8 7 7 7 1 5 3 8 7 7 5 4 3 2 4 7 8 11 14 16 17 19 20 21 22 22 19 20 21 20 23 23 23 20 18 16 16 16 13 12 15
8 8 16 12 12 11 3 3 5 8 8 6 5 5 5 8 10 8 6 5 4 3 7 9 11 13 12 12 14 19 21 21 19 17 17 17 19 18 19 22 22 20 18 16 15 15 14 13 15
6 11 12 12 13 12 4 11 4 2 8 7 8 7 2 8 11 9 8 6 4 6 9 11 12 11 12 14 14 17 14 15 15 14 13 14 14 13 12 15 19 20 18 16 14 14 14 14 15
10 12 16 8 11 14 16 9 13 7 8 10 9 5 6 11 11 11 9 6 5 7 9 10 9 11 11 12 13 13 13 12 12 11 10 11 12 12 12 13 12 18 19 17 14 13 13 14 16
14 15 14 14 14 16 18 13 10 11 13 10 9 11 12 12 12 11 7 4 5 7 9 9 9 9 10 12 13 12 11 11 10 9 9 8 9 12 13 14 16 18 18 17 15 14 14 16 16
14 16 16 16 12 12 8 7 9 12 13 5 6 4 13 14 12 11 7 4 4 7 9 8 9 9 9 11 11 11 11 10 9 8 7 6 7 8 8 12 15 18 20 18 14 13 13 16 17
15 17 14 13 12 9 4 9 9 11 7 6 7 10 14 12 11 8 5 2 4 7 8 8 8 9 9 10 9 10 9 8 8 9 7 7 7 8 7 9 13 17 18 17 14 13 14 17 17
13 11 13 12 12 6 8 4 4 7 2 9 10 12 13 12 11 10 6 3 4 5 6 8 8 8 8 8 9 9 8 8 7 7 7 9 7 7 5 6 10 14 17 16 14 14 15 17 17
12 15 14 13 11 6 6 10 9 9 4 9 13 11 12 11 12 10 6 4 3 3 5 7 7 7 8 9 8 8 8 8 8 7 8 9 9 7 4 5 8 13 13 13 13 13 15 17 15
13 14 15 12 9 6 6 9 9 7 9 13 13 13 12 13 13 10 7 5 2 2 4 6 7 8 9 10 10 8 8 7 7 9 9 9 10 9 5 8 11 11 12 14 16 17 18 18 17
16 15 18 10 10 5 11 13 8 8 10 13 12 14 13 13 13 11 9 7 2 1 3 6 7 8 9 9 9 9 7 7 5 5 7 8 10 10 9 8 11 13 14 14 15 17 18 18 17
16 13 12 13 9 9 12 14 14 14 14 12 13 14 14 14 14 14 12 8 3 1 2 5 7 8 10 9 7 8 6 5 5 4 7 7 6 7 9 8 10 12 13 14 15 15 17 18 17
14 12 14 12 7 10 16 15 15 15 17 13 14 14 15 15 13 14 13 9 5 2 2 5 6 8 10 10 11 11 11 8 5 4 7 10 8 5 8 9 11 11 13 14 16 15 16 14 16
15 17 17 11 10 9 15 17 19 17 16 13 13 14 16 15 14 15 14 10 6 2 2 4 5 7 8 9 8 8 7 6 6 8 8 6 2 4 7 11 13 13 12 12 15 16 15 15 18
19 18 15 12 12 12 16 18 12 8 9 10 11 11 14 17 17 15 15 12 8 4 3 1 4 6 6 8 9 8 2 4 5 9 13 11 2 4 6 10 13 14 13 15 18 17 17 19 16
20 16 15 14 12 12 4 14 14 10 11 11 11 12 13 16 17 16 16 14 10 7 5 1 3 5 6 9 9 9 6 4 4 4 6 10 8 6 6 10 14 14 13 14 17 18 17 21 18
17 13 13 15 12 12 16 8 10 6 9 7 6 11 12 15 18 17 16 15 12 9 7 2 1 4 5 8 10 10 9 7 3 2 5 9 10 10 7 9 11 12 14 16 18 18 18 21 20
15 8 10 8 11 12 15 10 9 3 4 5 5 2 9 14 17 16 18 16 14 11 8 4 2 4 4 7 9 10 10 10 8 3 3 6 10 11 9 10 10 11 12 17 20 19 22 24 19
17 13 9 10 9 11 2 6 10 10 8 9 9 5 8 15 18 17 17 16 15 14 10 6 3 5 4 5 7 8 10 8 7 7 4 6 13 13 12 11 12 11 12 17 20 22 22 23 24
20 18 11 10 11 10 6 6 4 2 6 6 5 4 10 16 18 18 16 16 16 15 12 7 5 5 5 6 7 7 10 10 11 10 10 13 12 13 14 14 15 14 14 17 20 18 20 23 22
14 16 17 15 13 8 11 5 11 7 7 4 2 5 12 16 18 18 17 17 16 15 13 10 6 6 6 6 6 7 9 8 7 10 11 11 10 9 8 13 17 15 17 17 17 18 19 24 28
20 16 10 10 14 13 8 7 7 3 5 4 6 8 13 16 18 17 15 17 16 15 14 11 8 6 7 6 5 6 7 8 8 7 9 8 6 11 11 10 9 10 14 15 18 18 18 20 20
13 16 14 13 13 12 9 6 5 4 3 3 7 11 15 17 18 17 15 18 18 17 14 12 10 8 9 7 6 6 7 7 8 9 10 11 9 10 13 12 10 9 10 11 14 16 19 18 20
22 22 21 11 16 10 10 10 3 5 1 2 8 13 17 18 17 17 17 20 20 18 15 13 11 9 10 9 7 7 7 7 9 10 11 12 13 12 13 17 10 7 6 5 6 12 12 16 17

GFSSGP_925_spd_009.txt.gz
Wind_Speed
12 11 7 9 7 8 14 1 6 10 3 6 3 6 12 10 9 5 6 4 3 3 4 5 6 11 13 13 13 13 13 14 13 13 14 14 14 15 15 14 13 12 12 12 12 13 13 13 12
11 9 8 8 8 12 3 9 7 10 9 1 2 4 5 5 6 2 3 6 4 2 3 5 7 9 13 15 14 14 14 15 14 14 15 15 15 16 17 16 15 14 14 14 14 14 14 14 13
9 8 9 10 13 14 10 8 11 7 1 7 4 1 4 8 4 3 6 5 4 4 5 6 9 11 14 14 13 15 17 19 17 16 17 17 18 19 19 19 18 15 15 16 15 15 15 16 13
10 10 7 9 19 8 5 12 10 12 6 6 4 6 6 6 4 2 5 4 4 6 4 5 8 12 15 15 15 16 17 17 16 17 18 20 21 23 22 21 21 18 16 17 16 16 15 16 15
13 7 11 17 17 9 3 10 10 9 6 3 3 6 0 8 4 4 4 3 4 7 6 6 8 11 14 12 11 12 14 15 16 16 17 19 21 22 22 23 23 22 18 18 17 14 12 14 16
9 10 12 15 6 9 5 5 7 10 8 3 4 6 2 13 7 5 4 4 3 4 3 5 8 9 9 11 13 15 17 19 19 18 18 20 22 23 23 24 24 24 21 19 18 16 13 12 16
14 12 17 17 18 13 6 5 10 11 11 7 4 7 2 7 7 6 5 4 3 2 3 6 8 9 14 11 13 15 17 19 21 23 22 19 20 21 21 21 23 23 23 20 18 17 14 12 14
12 13 21 16 14 12 9 1 12 7 8 5 3 5 8 7 10 8 7 6 5 5 5 8 10 11 11 12 11 15 18 19 18 20 18 17 19 20 22 22 21 21 23 19 19 17 16 11 14
13 13 15 19 16 10 10 13 6 4 10 7 4 7 5 6 9 9 8 7 6 6 7 9 9 10 11 13 14 14 15 12 13 14 14 14 14 15 14 16 17 18 21 19 17 15 14 12 14
15 14 21 15 14 12 16 17 17 6 10 9 8 7 5 8 10 11 10 9 5 6 7 9 8 9 10 11 12 14 13 10 14 14 13 13 14 14 14 9 10 16 20 18 15 15 14 13 14
20 18 18 18 15 14 15 17 9 9 10 10 3 7 14 13 12 12 10 3 6 5 7 8 8 8 9 11 12 13 9 11 11 12 12 12 11 13 14 15 16 14 19 19 18 15 15 16 16
21 19 20 16 18 15 13 10 9 8 11 4 6 4 8 12 11 13 10 5 4 5 7 7 7 8 8 10 11 12 11 11 12 12 8 11 11 12 10 11 15 17 20 20 17 18 16 18 16
19 18 20 21 17 15 14 10 12 12 7 4 5 7 10 11 11 11 7 4 3 4 6 6 7 7 8 9 10 11 11 13 10 10 9 11 10 8 9 11 16 17 18 20 20 16 17 14 15
21 25 20 17 17 16 11 16 5 11 2 3 9 11 9 10 13 11 9 7 4 3 5 6 7 7 8 9 12 12 12 12 12 8 9 9 10 9 8 10 12 15 20 20 19 18 14 14 19
21 19 20 18 18 17 12 17 16 12 9 9 8 11 13 13 13 13 11 8 4 3 3 5 6 6 8 13 11 11 12 11 10 10 6 9 10 9 8 7 9 14 17 19 21 19 15 17 19
20 23 19 22 22 13 9 19 14 12 12 11 13 14 12 12 11 13 10 8 5 4 3 4 5 6 8 11 11 10 10 9 9 7 8 10 11 10 8 6 5 10 16 21 19 17 18 20 19
19 18 22 19 11 13 16 19 19 6 11 13 13 13 11 11 13 13 12 10 6 4 3 3 4 6 9 10 9 8 8 8 7 7 9 10 12 12 10 8 8 9 14 16 21 22 20 19 18
20 23 20 16 14 11 16 19 19 16 15 16 17 13 11 13 15 15 13 11 7 4 4 2 4 6 9 12 5 7 5 5 4 6 8 9 10 9 10 9 12 12 12 12 13 17 19 21 20
22 20 16 12 7 14 11 17 20 20 15 18 18 13 12 14 13 17 15 12 8 5 5 2 3 5 8 10 10 7 8 4 3 4 8 10 11 11 8 7 11 12 12 12 12 17 18 18 18
25 20 19 15 15 10 14 19 21 20 21 18 16 13 10 13 14 15 17 14 10 7 5 2 2 4 6 7 7 6 6 6 7 8 5 2 3 5 6 9 12 12 12 13 13 14 21 14 15
23 20 17 17 16 11 12 23 22 15 10 13 11 6 9 14 16 16 16 15 11 8 6 3 0 2 4 5 3 5 3 3 4 7 9 6 2 5 6 10 11 13 13 15 16 13 10 11 10
22 18 19 16 15 13 14 16 15 16 9 10 13 11 10 14 16 16 15 15 12 9 8 5 2 2 3 8 6 5 4 6 3 4 8 7 3 4 7 11 12 14 15 16 16 15 14 18 15
19 17 16 13 15 18 19 11 16 10 10 6 8 12 12 14 17 17 16 17 13 10 9 6 4 4 2 5 8 9 8 7 4 3 7 11 8 4 5 11 13 13 9 12 14 14 14 15 19
20 16 15 11 11 15 18 15 15 9 4 4 3 5 13 14 17 17 19 17 14 12 11 8 6 4 1 4 6 7 8 9 9 6 6 8 11 7 6 10 10 13 12 15 16 15 15 17 16
16 13 11 12 13 13 17 11 10 14 4 5 4 3 10 13 16 17 17 16 16 14 12 9 7 6 2 3 4 6 8 10 13 9 8 9 10 12 7 9 8 11 14 17 17 18 20 20 25
22 20 12 15 13 13 11 7 5 4 2 3 3 2 10 13 16 17 17 17 16 15 13 9 8 7 4 4 4 6 9 13 13 12 9 8 9 11 10 12 10 10 15 18 17 21 23 25 24
18 21 21 20 17 11 6 7 9 6 10 8 4 4 9 14 16 17 16 17 16 16 13 10 8 7 6 5 4 5 7 10 9 9 10 9 9 10 11 11 12 14 16 19 19 24 22 23 21
23 20 19 14 17 16 13 10 4 10 5 8 7 7 12 16 17 16 15 17 16 16 14 11 9 8 7 6 4 5 6 8 8 8 8 7 9 12 11 12 17 17 17 19 20 22 20 24 21
21 20 15 15 13 11 10 8 8 6 5 2 9 11 16 17 17 16 15 18 17 16 16 13 11 9 8 7 6 5 6 8 8 9 11 11 10 12 12 11 13 16 19 19 22 22 20 18 15
26 26 22 10 18 12 12 3 10 7 5 5 9 13 17 17 17 16 16 18 18 17 16 14 12 11 10 9 8 7 7 8 9 10 11 10 12 12 13 11 13 14 14 19 19 19 18 19 18

GFSSGP_925_spd_015.txt.gz
Wind_Speed
9 8 5 2 2 2 6 8 6 5 4 4 7 6 9 6 5 4 17 13 17 20 18 16 13 11 11 11 11 10 10 9 9 10 11 10 11 11 12 11 7 6 7 8 9 10 10 11 8
10 6 4 3 2 1 6 10 15 2 7 7 8 5 10 4 6 10 13 16 15 15 15 14 13 11 9 8 10 10 10 10 11 11 11 11 12 13 13 12 11 10 10 10 11 11 12 9 10
10 11 2 4 4 6 5 5 20 9 5 5 4 5 7 9 10 13 20 18 14 12 16 16 13 11 8 8 8 9 10 12 12 12 12 13 14 15 15 15 14 14 14 14 12 12 12 12 9
3 4 3 1 10 12 4 8 8 2 5 7 6 7 5 12 8 18 20 14 12 11 18 15 11 9 7 6 8 9 11 12 12 12 12 12 13 15 16 16 17 17 17 16 15 13 13 12 11
5 3 4 5 13 16 3 8 8 4 8 3 7 5 6 7 25 23 18 13 12 17 16 14 10 6 3 6 8 10 13 15 15 15 13 13 14 16 16 17 17 18 18 18 17 16 15 12 11
3 1 3 6 15 9 4 5 9 7 6 4 7 6 5 19 21 19 18 14 15 14 10 8 5 5 9 11 9 9 10 12 13 15 16 15 15 16 17 18 19 20 22 20 20 19 17 14 12
4 2 7 11 16 14 4 8 1 12 5 3 5 4 5 10 21 21 19 19 12 8 9 9 11 12 10 9 9 11 10 10 13 13 13 14 15 16 17 18 19 21 22 21 22 21 18 17 14
3 2 10 13 12 17 3 9 9 7 3 9 9 5 6 8 23 20 19 16 14 17 15 16 15 8 5 4 5 9 12 10 11 8 7 8 10 12 13 15 17 20 20 20 21 20 19 18 16
13 7 12 16 16 16 10 5 5 6 2 2 7 7 13 29 23 20 20 22 20 21 16 15 17 10 7 1 8 11 10 12 11 8 6 8 11 13 13 15 14 18 18 19 18 19 20 18 17
10 6 19 15 17 16 10 7 7 6 8 6 5 9 23 27 26 17 13 14 16 16 17 12 8 2 4 8 5 5 7 9 10 9 13 12 13 10 14 14 13 11 14 18 18 19 19 16 17
16 15 17 18 19 17 15 10 9 10 4 2 9 11 12 12 14 14 17 17 21 19 14 6 4 2 4 6 6 8 11 7 7 11 13 13 13 9 9 10 12 12 11 14 16 19 19 18 17
19 21 21 22 19 15 7 7 12 11 7 4 10 16 10 9 10 11 11 18 19 17 14 9 5 1 5 4 9 8 12 12 14 15 13 15 16 10 10 11 11 11 14 13 18 20 20 17 16
23 22 21 22 18 10 5 9 16 17 6 2 9 11 11 10 9 18 14 23 18 18 12 7 2 2 3 7 10 11 14 17 18 15 16 14 17 13 12 10 10 11 12 15 19 20 19 18 20
22 17 19 19 16 7 8 15 16 11 7 9 8 9 9 10 10 11 18 17 19 15 12 5 0 4 6 9 13 13 13 14 14 17 15 14 12 13 12 11 14 13 15 14 19 24 23 21 19
19 21 22 18 11 14 13 17 15 10 8 10 10 10 10 10 19 18 26 22 20 14 9 5 2 6 4 6 7 11 12 13 16 15 13 11 10 12 13 12 13 11 14 16 20 22 21 19 19
17 15 16 10 12 20 10 20 14 10 9 9 10 10 10 13 14 24 31 26 22 17 11 7 2 3 4 7 10 12 12 13 14 13 11 11 12 11 11 12 11 9 13 17 19 21 19 13 20
9 12 14 16 18 22 12 19 17 11 8 8 10 9 11 10 6 23 31 28 21 16 12 7 4 3 4 9 9 10 9 11 11 10 10 10 10 10 12 12 8 7 12 21 21 21 20 17 20
13 8 13 18 23 18 14 14 8 10 10 11 9 9 9 9 14 24 32 29 23 17 12 6 4 2 6 8 9 9 8 7 7 9 9 8 8 9 8 10 8 5 12 18 21 19 19 16 17
14 14 19 22 19 17 6 20 9 10 6 7 10 9 8 10 10 25 30 28 24 18 13 7 6 3 4 8 7 4 5 3 3 8 8 6 7 9 9 8 9 9 12 16 18 18 16 17 18
17 19 22 23 19 4 15 20 13 8 6 8 10 10 4 11 13 14 24 26 23 19 12 9 5 4 3 5 5 5 9 8 9 7 7 5 5 6 9 8 9 11 11 12 14 14 15 17 16
21 20 21 19 21 16 6 5 5 5 5 7 12 8 16 21 17 14 15 25 23 17 14 10 8 3 1 5 4 8 11 10 6 3 8 6 3 4 7 6 8 11 15 18 18 19 18 11 17
21 19 21 21 16 8 1 6 4 6 10 10 13 10 15 18 15 14 13 17 22 18 15 10 8 4 4 5 7 7 9 9 7 3 7 4 3 3 6 9 8 10 12 19 21 17 13 13 15
22 16 19 21 15 7 4 3 5 4 8 13 4 11 14 17 18 16 13 19 22 18 16 13 9 6 3 4 5 10 12 10 5 5 5 6 2 6 8 11 9 9 9 14 20 19 16 15 15
25 16 16 16 11 4 6 7 9 6 8 5 3 10 16 14 13 13 19 25 21 21 18 14 12 7 2 5 8 11 11 10 8 7 6 6 2 3 10 13 11 9 8 14 18 20 20 26 22
20 14 9 3 3 6 5 4 9 9 7 7 10 13 12 15 16 15 14 11 21 23 19 15 14 9 3 7 6 8 7 8 8 7 9 9 5 8 10 13 13 12 12 14 17 16 17 17 17
19 15 7 7 4 5 6 7 10 14 10 9 14 14 13 14 14 13 14 14 22 21 20 17 16 13 7 9 7 6 6 4 6 8 9 8 9 9 7 9 14 12 13 15 17 17 18 20 19
16 12 13 5 1 2 5 6 6 7 8 10 14 13 12 13 13 13 13 19 23 22 19 13 17 13 13 9 5 4 4 4 5 6 9 8 9 9 9 10 12 14 15 16 18 19 21 20 20
22 7 7 1 8 6 5 6 6 7 9 10 11 11 10 10 12 12 12 17 24 24 19 13 15 14 13 9 8 5 5 5 6 7 9 10 10 13 11 14 17 16 18 23 24 26 27 24 20
12 12 4 7 6 5 2 7 7 12 9 14 12 12 14 13 12 12 10 21 27 24 20 14 14 15 14 10 9 7 8 6 7 10 11 10 12 12 13 15 20 21 26 28 31 28 25 23 22
14 10 7 8 6 5 5 6 9 8 12 13 13 13 10 11 11 11 11 18 24 24 21 16 13 18 14 12 10 8 10 7 7 11 11 10 14 13 14 16 19 24 25 29 30 28 27 28 24

GFSSGP_925_spd_021.txt.gz
Wind_Speed
6 7 4 1 3 4 4 6 3 6 4 1 2 4 5 2 5 4 3 24 19 31 29 32 27 24 22 19 17 17 16 16 15 14 13 12 12 11 11 10 10 8 8 8 7 7 8 9 8
9 7 2 2 3 1 5 5 6 8 5 3 3 3 2 1 2 3 12 23 21 28 32 33 28 25 22 19 17 16 16 15 15 15 14 13 13 13 12 12 12 11 10 10 9 9 9 10 10
10 4 3 3 3 4 4 4 6 11 6 5 2 3 2 3 2 14 7 26 27 29 31 30 29 27 23 20 18 16 16 15 15 15 15 15 14 15 15 15 15 15 14 13 13 14 12 11 12
4 3 3 3 8 6 5 11 13 9 9 4 7 3 4 7 5 18 17 27 29 30 31 31 29 26 23 20 17 15 16 15 16 16 17 16 16 17 17 17 17 18 17 17 16 16 15 13 13
2 2 1 2 6 5 6 8 9 5 4 2 4 5 4 5 10 18 28 31 30 29 31 30 28 26 24 21 18 16 15 13 15 17 16 16 16 17 17 17 18 18 19 19 19 19 18 17 16
2 3 1 4 5 4 7 10 3 5 4 2 0 6 5 6 13 24 31 30 28 27 29 29 27 25 22 19 17 14 12 13 15 15 14 15 15 17 17 18 19 20 20 20 21 20 20 18 18
5 3 4 4 9 8 7 1 4 5 6 6 5 7 4 6 21 31 31 29 28 26 27 28 27 25 21 17 14 12 13 15 14 14 13 13 12 13 15 18 19 20 21 22 22 21 21 20 19
4 4 3 5 5 11 7 3 2 3 9 2 3 5 6 7 24 25 28 28 27 27 29 30 28 25 21 18 14 13 15 16 15 14 13 13 12 12 13 14 16 17 20 22 23 23 24 23 20
4 2 6 7 6 8 2 4 5 4 4 3 6 6 6 17 26 23 25 26 27 29 31 30 27 24 20 15 13 13 15 16 17 16 14 15 13 13 12 14 14 14 16 17 20 22 23 21 20
6 5 9 9 7 8 11 3 12 6 13 7 4 6 2 29 29 21 19 21 28 28 29 28 26 23 18 16 14 14 15 15 16 17 15 16 15 14 12 12 11 14 16 18 15 18 18 19 21
7 13 21 13 14 7 9 19 12 7 12 12 10 8 7 10 18 20 22 28 37 36 30 27 24 21 19 15 11 13 14 14 14 15 17 16 16 15 12 12 12 12 13 15 14 13 17 18 21
5 10 18 23 21 10 15 14 17 19 19 18 11 9 11 13 16 16 21 30 31 32 29 28 27 23 16 11 12 11 9 8 8 10 13 16 17 15 16 15 12 12 12 12 12 10 14 18 20
6 15 16 14 15 16 16 18 19 23 19 19 9 9 16 16 17 25 30 31 30 31 32 33 28 22 15 13 12 11 7 7 8 11 13 15 15 16 16 16 14 13 12 12 13 12 14 17 20
7 8 13 11 17 16 20 17 10 17 14 12 8 12 13 15 19 16 18 27 29 32 37 32 26 19 15 11 10 6 6 6 9 10 12 13 15 17 17 17 15 13 12 12 13 13 14 18 19
7 14 17 11 11 19 15 16 21 16 10 13 10 11 14 18 14 19 34 32 37 34 36 31 23 19 16 11 8 7 6 8 9 9 11 14 14 15 14 14 14 13 13 13 13 14 13 17 17
4 3 7 6 15 14 7 26 19 18 8 14 12 11 13 14 18 32 24 26 28 33 32 26 22 20 14 10 5 5 5 8 8 9 10 11 13 13 13 15 16 13 13 12 13 15 15 16 15
2 14 15 21 10 6 7 15 10 9 8 12 15 12 11 16 11 18 23 29 32 35 31 24 21 18 12 7 4 5 7 7 8 9 9 9 10 12 14 15 15 13 12 12 14 15 15 16 15
10 8 6 17 1 8 13 13 17 16 9 14 15 11 12 14 17 15 25 28 35 33 28 24 19 14 10 4 4 6 6 7 9 10 9 9 8 11 14 14 14 13 12 12 15 14 14 12 12
8 8 9 8 4 7 8 9 15 14 7 14 15 10 12 8 4 16 26 34 36 32 28 22 18 14 9 4 3 2 4 8 11 11 10 9 8 8 12 13 12 11 12 12 16 14 13 10 8
9 9 17 18 8 7 9 14 15 12 12 8 13 13 6 5 5 9 21 26 31 32 26 20 16 12 7 3 1 2 6 7 9 9 8 8 9 9 12 13 11 10 11 11 18 16 12 10 10
18 17 15 19 2 6 8 14 12 16 5 9 9 8 6 11 11 11 14 22 29 29 23 20 15 11 7 3 1 2 6 6 5 2 3 7 5 7 10 12 11 11 12 14 19 18 15 10 12
19 16 21 18 5 6 4 5 5 8 10 7 10 7 10 7 8 13 13 13 25 25 21 18 16 12 8 4 2 4 4 4 4 3 4 6 3 4 6 8 9 12 12 16 18 18 15 14 12
18 11 9 10 6 4 9 3 7 4 8 11 11 7 6 8 12 13 13 18 24 24 22 19 15 12 8 4 1 3 4 3 4 4 4 4 3 4 6 7 10 11 12 15 17 16 16 14 16
7 4 2 4 4 12 19 7 5 7 8 7 4 1 7 10 11 9 14 22 22 22 20 19 14 13 9 5 2 3 4 3 4 4 5 5 2 6 8 7 9 9 10 15 16 14 15 14 18
7 7 2 3 5 7 7 6 15 7 9 9 9 7 8 9 13 15 15 10 19 22 23 19 15 12 10 7 2 2 1 3 4 7 7 4 1 6 10 8 10 7 9 12 14 15 14 15 17
14 14 6 6 4 4 7 7 7 8 10 8 9 8 10 11 11 13 13 12 18 24 24 20 16 13 11 7 3 2 2 3 5 6 5 5 4 7 11 9 8 7 9 12 15 13 11 13 13
9 16 12 3 2 2 4 7 9 2 5 6 7 10 10 12 13 14 11 15 20 25 25 21 17 13 12 8 4 2 1 3 5 6 3 3 3 4 9 11 9 8 9 12 13 13 12 12 11
10 10 8 5 5 4 5 4 6 4 5 3 7 8 9 8 10 12 10 14 22 28 26 21 18 15 13 8 5 2 1 3 3 4 3 4 4 5 9 12 11 8 9 11 13 13 13 12 11
8 8 5 7 6 5 2 6 7 9 9 11 9 9 12 13 13 13 10 16 24 27 24 21 18 15 14 9 6 4 3 3 4 5 3 4 4 5 9 11 13 11 12 14 14 12 13 14 14
13 12 10 9 6 6 3 7 5 9 10 14 11 10 8 9 12 11 10 14 18 24 22 20 20 18 14 9 8 7 4 4 5 6 4 4 6 7 10 11 13 13 14 16 16 16 15 15 14

GFSSGP_925_spd_024.txt.gz
Wind_Speed
10 11 8 3 3 4 3 6 2 4 2 3 4 6 8 6 6 5 5 22 11 30 25 35 30 25 23 21 19 16 15 15 14 13 12 11 11 11 11 10 9 8 8 8 9 8 8 7 6
14 9 3 2 3 1 5 4 5 5 4 1 2 3 4 5 3 3 5 25 16 28 27 35 32 28 26 24 21 19 18 17 16 16 15 14 14 14 13 12 11 11 11 10 10 9 9 9 9
10 3 3 3 3 4 4 5 5 7 8 7 3 3 3 4 3 5 8 26 20 27 30 33 32 30 27 25 22 20 18 17 17 16 15 15 14 14 16 15 14 14 15 14 12 11 12 12 10
4 3 3 2 5 6 5 6 3 8 8 4 4 4 3 8 6 9 14 27 24 28 30 31 33 31 28 26 23 20 18 18 17 16 16 17 15 17 17 17 16 16 16 16 15 14 14 14 13
3 3 1 2 5 5 6 8 3 6 5 3 2 4 4 4 9 14 18 29 27 30 33 32 34 32 29 26 24 20 18 17 14 14 15 16 16 17 16 19 17 18 18 18 17 17 16 17 16
3 3 0 4 5 5 6 8 3 4 4 2 3 2 6 4 11 17 22 28 28 29 32 33 33 31 29 27 24 21 18 16 14 13 14 15 16 15 16 18 17 17 17 18 19 19 19 19 18
5 4 4 4 5 6 5 4 3 2 4 4 2 3 6 5 14 18 26 26 28 28 30 31 32 32 30 27 24 21 18 17 14 13 14 14 14 13 14 15 16 17 18 19 19 19 19 19 18
4 3 2 5 3 8 4 1 3 1 6 1 2 4 8 5 17 21 27 27 28 27 28 31 32 30 29 27 24 20 17 15 15 15 16 16 16 14 13 14 14 14 16 18 20 21 21 23 21
4 1 5 7 6 8 4 2 3 0 4 4 6 6 6 4 17 24 24 25 27 28 30 31 32 32 28 25 22 19 16 15 16 17 18 17 17 15 13 13 15 15 15 16 16 17 21 23 22
5 5 10 8 8 7 2 1 5 4 10 11 5 8 9 12 23 19 17 23 31 34 33 33 33 32 29 25 21 17 15 16 18 18 19 19 19 17 15 14 14 13 14 15 16 17 17 18 20
8 14 15 7 9 2 6 10 1 5 11 14 9 19 3 9 15 17 21 25 38 39 36 35 33 30 28 24 20 16 15 17 19 19 20 21 19 18 17 16 13 13 13 14 16 15 12 17 18
3 11 20 9 6 2 11 7 14 14 18 15 17 11 5 9 14 17 21 27 31 36 38 34 32 29 26 22 18 13 14 16 19 18 17 20 21 21 19 19 15 13 13 13 11 12 11 14 17
7 12 7 9 10 11 12 15 17 17 24 12 13 11 12 11 19 26 29 27 30 37 37 34 31 28 25 20 14 13 14 14 12 13 14 16 19 21 19 18 16 15 13 13 10 12 11 12 15
6 7 8 6 12 13 18 19 3 16 19 15 14 14 11 12 18 19 19 29 35 35 32 30 30 27 23 17 14 13 15 13 13 13 13 15 16 17 18 18 17 16 13 11 10 11 10 11 14
4 4 8 10 9 8 13 7 14 25 11 12 15 15 12 14 13 19 38 35 31 30 28 29 31 27 20 16 13 14 15 13 13 14 13 13 14 16 17 18 17 15 12 11 12 10 11 11 13
1 3 3 4 5 7 10 9 19 14 9 16 14 12 10 14 17 31 35 30 27 26 25 32 30 25 19 16 13 15 13 12 13 13 12 11 11 14 16 16 15 12 11 11 11 10 11 10 12
1 9 9 6 11 6 7 13 17 7 6 14 14 13 12 14 11 28 25 23 24 25 30 34 28 23 19 16 14 13 11 10 11 11 11 9 10 13 15 15 13 12 11 11 10 11 12 12 13
6 5 6 9 3 4 8 11 19 20 8 14 12 12 11 12 17 10 18 21 25 27 35 31 24 20 18 14 12 11 9 8 10 10 11 10 10 10 13 13 12 11 12 11 11 12 12 12 12
10 14 10 8 3 6 7 8 18 16 8 11 13 13 14 11 4 10 21 26 30 35 36 31 26 21 19 13 11 7 4 7 9 10 10 11 9 9 10 12 11 11 13 11 11 13 13 9 12
12 15 14 16 6 5 11 12 16 17 13 11 15 16 11 6 3 4 14 21 29 35 34 29 25 21 16 11 6 2 4 6 8 8 7 8 9 9 10 10 11 11 11 11 14 16 13 6 11
19 21 19 18 4 4 7 11 15 14 7 7 10 11 8 8 7 6 8 17 23 30 32 27 23 18 13 8 4 1 4 3 3 3 2 5 6 6 8 10 11 10 10 12 17 18 14 10 10
24 16 16 14 1 4 4 6 13 15 13 8 11 7 8 4 5 7 10 12 23 29 28 24 20 17 12 7 3 1 1 2 3 4 5 6 4 3 4 7 10 10 11 13 18 18 14 13 11
13 13 13 9 5 3 2 5 6 4 11 12 10 11 7 6 9 11 12 19 25 29 27 23 20 16 11 6 3 1 2 2 4 5 6 5 4 2 3 6 7 9 11 12 16 17 15 16 16
8 6 5 3 2 6 9 7 7 6 15 7 7 3 2 7 8 9 14 23 24 24 24 23 18 15 10 7 3 1 1 2 4 5 6 5 1 4 5 6 8 9 10 12 14 13 12 12 15
9 8 1 2 2 5 5 8 15 9 10 11 11 6 6 6 12 14 16 13 20 24 24 21 16 14 11 7 3 1 1 2 4 6 6 4 0 5 7 6 9 8 9 12 14 12 11 10 12
22 13 7 8 4 4 10 8 6 20 19 11 8 4 9 9 8 13 13 13 18 24 26 20 15 14 11 9 5 1 0 4 5 5 4 5 3 5 9 7 7 6 8 12 12 12 10 9 9
7 15 9 4 2 2 5 6 6 9 8 8 7 7 9 9 9 12 11 16 19 24 25 20 16 13 11 10 5 3 1 4 4 3 4 3 3 5 10 9 8 7 9 11 13 11 10 10 10
14 11 6 3 6 4 5 4 5 6 7 4 5 8 7 7 9 12 10 14 20 27 25 19 17 14 12 9 6 3 2 3 4 3 4 4 2 5 10 10 8 9 9 11 11 11 10 10 10
4 10 3 6 5 5 1 6 7 7 8 8 8 8 10 13 12 13 10 15 22 26 23 20 17 13 12 9 6 3 2 2 4 4 4 4 3 6 9 12 10 9 10 12 11 10 10 10 11
14 9 9 8 10 2 3 5 4 8 6 4 8 10 8 8 11 11 11 14 19 23 22 20 17 15 13 9 6 5 3 2 5 5 6 5 5 9 9 12 12 10 11 10 11 12 12 13 13

GFSSGP_925_spd_027.txt.gz
Wind_Speed
12 14 10 3 3 2 3 3 2 2 1 3 7 5 6 2 4 6 1 16 12 28 28 33 30 26 23 21 19 17 14 12 11 10 9 9 9 9 9 8 8 8 8 7 7 7 5 4 4
16 13 3 2 2 3 3 3 6 3 7 11 6 7 4 6 4 5 3 22 14 28 31 32 34 30 26 24 21 19 16 15 14 13 13 12 12 12 11 12 11 10 10 9 10 10 8 6 5
14 4 2 2 2 5 2 6 3 7 10 3 3 3 4 4 4 3 7 26 19 27 32 30 33 31 28 26 24 21 18 17 16 15 15 15 14 14 15 14 14 13 12 12 12 14 10 10 8
6 4 2 4 10 6 4 3 4 9 3 2 2 7 3 6 4 5 11 26 21 25 31 28 33 33 30 28 25 23 20 18 17 15 16 16 16 16 16 15 16 15 14 13 14 16 13 13 12
1 1 3 4 7 5 8 11 7 7 6 7 2 3 4 3 9 5 15 26 24 25 32 27 34 34 32 29 26 24 21 18 17 16 15 16 17 17 16 16 17 18 17 16 16 15 16 17 16
3 1 4 7 7 6 7 10 5 8 4 4 4 3 5 2 6 10 17 27 24 26 33 30 33 35 32 30 27 25 21 19 17 16 15 14 17 15 15 16 16 16 17 17 17 16 18 19 19
4 3 5 5 6 7 6 3 3 2 2 2 1 4 3 5 8 11 16 26 26 26 31 31 31 36 33 30 27 24 22 19 17 17 15 15 14 15 14 14 14 15 16 17 17 18 19 18 17
3 3 4 6 6 6 5 4 6 1 2 1 4 3 8 8 8 11 15 21 22 25 27 30 30 27 26 26 28 25 22 19 18 18 17 16 17 16 15 15 15 15 14 16 17 19 20 20 20
2 6 11 8 7 7 1 4 2 1 8 6 7 9 8 10 6 8 12 18 20 21 26 28 25 24 24 22 22 24 21 20 18 17 18 16 15 14 15 15 16 14 14 15 16 17 18 19 21
9 11 14 11 10 9 6 8 9 6 13 21 13 14 9 9 8 12 18 25 26 25 28 27 28 28 24 20 19 17 16 15 15 15 15 14 15 15 16 17 17 16 15 14 15 16 17 17 16
10 19 21 18 16 5 14 15 10 13 18 22 16 19 21 18 14 17 23 31 35 30 25 30 29 25 23 20 18 16 14 14 16 17 16 15 15 16 16 16 14 13 12 12 11 13 14 13 13
13 18 23 22 16 10 16 13 17 16 26 26 21 18 20 19 15 19 24 29 30 29 29 25 28 27 26 22 22 19 19 16 15 14 17 18 16 17 17 16 15 14 12 12 11 10 10 12 13
15 20 17 20 18 17 19 19 19 24 28 24 20 19 19 19 21 24 27 28 28 29 23 22 26 27 28 25 21 20 18 15 12 14 17 18 16 17 17 17 16 15 13 11 11 10 10 10 11
9 22 23 17 16 19 19 24 10 20 26 21 22 25 23 22 21 21 19 28 27 27 24 25 27 29 28 25 23 20 16 14 13 15 16 17 17 16 17 16 16 16 16 13 11 9 9 11 11
10 15 13 12 17 13 15 20 17 25 21 19 23 22 22 20 20 19 26 28 35 27 20 24 26 28 27 24 21 17 14 13 14 16 17 18 17 17 16 16 16 15 17 13 10 9 8 9 9
9 6 14 12 17 11 10 20 14 21 15 17 18 17 18 19 19 24 27 25 18 19 20 25 27 30 29 25 19 14 13 14 16 18 17 17 16 15 14 15 14 12 13 11 9 9 8 10 9
8 12 15 11 8 6 13 18 15 11 10 17 20 20 18 19 19 21 21 20 19 23 25 27 28 27 28 23 17 13 12 13 15 16 15 15 14 13 13 12 12 10 11 10 10 9 10 10 8
18 12 10 13 9 11 16 22 15 19 13 20 20 20 18 18 23 17 14 14 18 22 28 32 34 29 25 17 14 11 12 13 14 13 13 13 12 11 10 11 11 11 11 9 9 9 9 9 9
17 21 21 14 9 7 13 18 15 20 19 19 19 19 19 19 14 6 4 9 16 20 26 30 29 24 21 14 9 6 9 8 9 10 11 11 10 10 8 9 10 11 11 11 9 8 11 7 9
24 22 23 14 12 9 16 22 18 18 21 17 18 20 18 17 10 1 4 8 14 19 22 25 25 26 19 14 9 6 5 6 7 7 7 7 8 8 9 10 11 10 9 9 10 11 10 5 11
28 29 23 20 5 9 9 18 20 23 13 16 19 17 16 14 7 4 7 11 15 20 24 24 23 22 17 13 9 6 5 4 3 3 2 3 5 5 8 9 10 9 9 9 11 13 13 10 9
27 23 23 19 9 13 2 19 16 21 21 18 18 14 14 9 3 7 10 12 17 21 23 21 20 19 14 12 8 6 4 2 2 3 4 5 4 4 5 7 9 10 8 8 10 14 12 11 13
21 14 19 16 7 12 19 13 16 7 17 22 19 14 7 3 5 9 12 16 20 22 21 19 18 15 14 12 7 5 4 2 1 3 4 4 3 3 4 6 8 8 7 8 12 14 11 11 11
15 11 11 9 11 17 19 14 21 14 21 17 15 11 2 3 8 9 13 21 23 21 19 18 17 15 13 10 7 5 4 2 1 3 3 2 1 5 5 5 6 7 8 10 12 13 11 12 10
20 15 7 8 9 13 11 13 19 10 18 17 16 8 4 7 10 12 15 18 22 21 19 18 16 14 12 10 6 4 3 1 1 3 3 1 2 5 6 6 7 7 8 10 11 11 8 7 6
28 23 11 11 9 9 15 10 9 19 26 19 17 7 6 9 11 14 17 17 21 21 19 17 15 14 12 9 6 4 2 0 2 2 1 1 2 6 8 8 7 7 8 11 11 8 7 5 5
24 18 18 14 1 3 5 6 12 16 12 12 15 10 9 11 13 16 17 20 21 20 20 17 15 13 11 9 6 3 2 1 0 1 0 1 4 7 9 8 6 6 8 10 10 8 7 7 7
19 23 12 10 13 8 5 5 10 9 14 10 9 10 10 12 14 16 17 19 19 20 18 15 14 12 11 8 5 4 2 2 3 1 2 3 5 8 10 8 7 8 9 10 9 8 7 7 7
11 22 7 10 6 6 3 5 8 16 15 14 11 11 14 15 17 17 17 19 19 19 17 15 13 11 10 8 6 4 3 3 4 2 2 2 5 8 10 9 9 9 10 9 8 8 7 7 8
22 19 21 11 8 8 2 5 1 9 1 3 8 11 14 15 16 17 17 19 19 19 18 15 13 10 9 8 6 5 3 4 4 4 3 3 6 9 10 11 9 10 10 9 8 8 7 8 9

GFSSGP_925_spd_030.txt.gz
Wind_Speed
12 11 8 6 5 5 11 7 3 6 7 1 4 5 6 10 8 6 4 14 12 23 24 31 29 26 23 21 19 17 15 12 10 9 9 9 9 9 9 8 8 8 6 5 4 5 5 4 5
14 11 7 3 7 9 9 4 9 2 4 6 6 10 9 11 6 4 6 17 14 23 24 27 31 27 25 23 21 19 16 13 11 10 10 10 10 10 10 10 9 9 9 9 9 8 7 6 5
13 8 6 5 8 10 2 10 5 2 2 2 4 4 1 3 2 2 1 20 17 23 23 26 30 30 27 25 22 20 18 15 13 12 12 12 12 12 13 12 12 11 12 12 12 12 10 9 7
12 7 5 9 11 6 7 6 3 5 5 2 3 6 4 4 1 1 6 20 17 21 23 24 29 32 29 26 24 22 19 17 15 14 13 13 13 14 15 14 14 14 14 15 14 14 14 12 11
10 5 9 11 13 8 7 9 7 9 4 5 1 4 3 3 3 2 7 18 17 20 23 22 28 32 32 29 26 24 21 18 17 15 14 13 13 14 16 15 15 15 17 19 15 15 16 14 13
8 5 10 12 14 8 8 9 9 12 8 4 4 6 2 5 5 4 7 15 16 18 23 21 26 32 33 31 29 26 23 21 19 17 16 14 13 16 16 15 15 14 14 16 16 17 17 16 15
15 9 14 15 12 10 12 6 10 6 6 5 5 9 3 3 10 6 6 11 16 16 20 22 21 31 35 33 30 27 24 22 20 18 17 16 14 15 15 14 14 13 13 14 16 16 16 16 16
10 9 18 13 13 12 1 7 1 4 3 2 4 7 7 10 9 8 7 11 18 19 20 22 21 25 27 25 30 27 24 22 20 18 18 18 16 15 15 15 15 14 12 13 14 15 16 17 17
13 10 14 19 15 12 6 10 5 3 10 12 9 12 12 13 11 11 9 12 17 22 23 23 23 24 25 24 22 27 25 22 20 18 18 17 16 15 14 15 17 18 14 13 14 14 14 15 19
15 15 22 21 14 16 15 10 11 9 13 17 17 15 12 13 15 15 15 15 17 24 24 25 24 24 23 22 21 19 20 18 17 16 14 14 15 15 15 15 15 18 17 15 15 14 14 15 15
21 25 21 23 19 19 19 20 17 17 15 21 19 18 17 19 20 20 20 21 20 21 28 26 25 24 24 22 20 18 18 16 15 15 14 14 14 14 14 14 14 13 12 13 12 12 12 14 13
29 25 23 25 25 19 19 23 21 19 19 23 21 19 21 23 21 20 23 24 20 19 26 27 27 25 24 21 21 19 17 15 14 13 13 13 13 13 14 15 14 14 15 14 12 12 11 12 14
30 25 25 22 25 23 21 23 28 25 21 24 20 20 21 21 24 30 30 25 22 20 21 26 27 26 24 23 20 19 18 15 13 12 12 13 13 13 13 15 15 16 16 15 13 11 12 12 12
25 27 29 27 25 22 23 26 25 22 23 23 21 21 21 21 22 25 25 23 20 19 19 24 28 27 26 25 22 20 16 15 12 12 12 12 13 13 14 14 16 17 17 16 13 11 11 11 13
25 25 24 22 22 25 21 26 26 21 23 22 18 19 20 20 23 19 22 23 21 16 17 25 28 28 26 23 20 17 14 13 12 12 11 12 13 15 16 16 16 17 16 16 15 12 12 13 13
21 25 24 25 22 22 18 28 23 18 20 18 17 18 20 22 21 22 26 26 19 16 18 23 26 29 28 25 22 17 14 12 12 11 11 12 15 16 16 16 16 17 15 15 15 14 11 13 11
25 26 32 25 21 18 21 32 23 17 17 15 17 20 21 21 21 21 22 20 17 14 17 22 25 27 25 20 19 16 13 12 11 10 11 13 15 16 17 15 16 13 14 14 14 14 11 11 9
25 26 27 28 21 15 24 30 21 20 19 21 18 22 19 21 23 20 17 16 9 10 16 19 23 24 22 21 17 13 12 11 10 10 12 13 14 16 15 14 13 14 13 13 13 11 11 10 11
26 30 30 23 22 21 27 29 23 19 18 23 21 21 22 21 18 13 10 5 5 9 14 18 21 22 23 20 17 14 13 10 9 10 11 13 14 14 14 13 12 12 12 13 12 13 12 11 11
29 29 30 24 23 23 24 29 26 24 22 24 22 23 20 20 15 8 4 4 8 12 15 19 21 23 21 16 12 9 9 7 7 7 9 11 12 12 12 13 12 12 11 12 13 13 10 9 14
31 30 25 27 20 22 24 29 31 26 26 23 18 18 23 21 16 5 5 7 11 14 18 21 22 22 17 14 12 8 6 5 6 7 7 8 8 10 11 10 10 11 13 12 14 12 12 12 14
31 25 25 25 21 23 22 23 28 22 22 23 23 20 20 15 8 5 7 9 13 16 19 22 22 19 15 13 10 8 5 5 3 5 5 7 10 9 7 8 11 12 12 12 10 10 11 11 13
33 22 23 24 23 25 28 19 23 19 21 25 20 19 18 9 6 9 9 12 15 20 23 22 20 16 14 11 9 8 6 4 4 4 5 8 7 5 6 7 10 11 10 9 8 9 10 9 9
22 17 18 18 17 21 24 21 24 24 27 25 22 15 15 8 7 9 12 17 20 22 22 20 19 15 14 12 9 6 5 4 4 4 7 6 4 6 7 8 8 8 7 7 9 11 9 8 6
27 21 11 13 14 17 19 19 21 24 17 25 18 9 9 9 10 13 16 16 22 23 21 19 17 16 14 11 8 6 5 3 4 6 3 3 3 7 8 7 7 7 7 8 9 10 8 7 8
30 27 14 19 15 15 20 11 14 10 22 25 22 12 9 11 12 15 17 17 22 22 21 18 17 15 13 11 7 6 4 4 4 3 2 0 3 8 8 7 7 7 7 9 9 9 7 7 8
29 24 24 11 10 7 13 14 16 17 21 16 15 16 13 10 13 16 18 19 22 21 19 17 15 14 13 11 7 6 5 3 2 2 1 3 5 8 7 8 7 8 8 8 8 6 7 6 7
28 24 21 15 18 16 12 10 8 8 11 13 13 14 13 13 15 17 17 18 20 20 18 16 14 14 13 11 8 6 4 2 1 2 2 4 6 9 8 7 7 8 8 9 9 7 7 8 9
18 23 19 18 13 14 7 8 9 17 10 12 12 13 14 16 17 18 17 20 21 20 18 16 14 14 13 10 8 6 4 2 1 1 3 4 8 10 9 8 7 8 8 8 7 7 8 8 7
27 21 26 13 20 11 6 4 1 7 2 10 7 10 15 17 18 18 18 20 21 20 18 16 15 14 13 10 8 6 4 2 0 3 3 4 8 10 10 9 7 7 7 6 6 6 7 8 8

GFSSGP_925_spd_036.txt.gz
Wind_Speed
8 8 6 6 4 7 15 18 19 1 2 6 5 2 12 9 11 5 15 18 26 22 25 29 26 26 24 22 19 16 14 11 9 6 5 4 4 4 4 4 3 3 3 2 2 3 3 5 5
10 9 7 5 6 11 11 6 9 6 21 7 2 3 5 3 14 13 14 13 24 21 23 28 28 26 25 23 21 18 16 13 11 9 7 6 4 3 4 4 5 4 5 4 4 5 6 7 6
13 16 7 5 10 14 13 7 7 8 11 4 4 5 2 4 12 13 14 9 23 18 19 25 29 28 26 24 23 20 18 16 14 11 9 7 5 5 5 6 6 6 6 7 7 7 8 9 9
9 9 7 8 18 21 16 11 12 19 10 3 4 5 4 13 5 8 7 10 22 19 17 23 27 29 27 26 24 22 21 19 16 13 10 9 7 6 8 8 9 9 9 9 10 11 11 11 11
17 8 11 14 19 20 17 10 8 7 9 6 1 3 11 10 13 8 8 9 12 20 20 20 24 29 29 27 25 22 20 19 16 14 11 10 9 8 8 9 10 11 11 11 11 13 14 14 12
7 7 11 14 21 21 17 2 12 9 10 9 5 6 2 15 14 8 7 9 10 15 23 23 22 28 31 29 27 24 21 19 17 15 13 11 9 9 9 9 12 13 12 11 11 11 11 11 13
16 12 16 20 21 21 8 7 12 13 7 10 11 4 7 15 12 6 4 8 11 12 23 21 20 24 30 31 29 26 24 22 19 18 15 12 12 12 11 12 14 14 13 13 12 12 13 13 12
13 14 22 20 19 21 17 8 12 13 8 9 3 3 4 7 7 10 11 15 21 22 23 26 23 23 29 33 31 29 26 24 22 20 17 15 14 15 16 17 18 17 16 13 13 13 14 15 14
19 15 16 22 23 21 18 16 14 20 3 13 10 11 13 16 16 17 11 16 17 14 27 31 29 24 23 25 25 31 30 27 24 22 20 18 16 14 17 21 19 16 16 15 15 16 15 15 16
17 16 26 21 22 21 20 17 19 15 6 12 18 17 18 18 7 13 13 14 18 20 20 32 35 33 28 26 25 26 31 30 28 24 21 18 16 14 16 10 13 20 19 15 16 17 17 14 14
22 23 24 23 23 23 23 22 23 22 18 18 19 15 15 14 13 11 17 22 18 21 25 20 38 36 35 31 29 31 27 27 27 25 22 20 17 17 14 17 20 20 17 14 12 17 15 13 12
26 30 27 28 26 26 26 25 28 25 24 17 22 17 16 12 13 14 18 21 19 22 21 24 33 37 36 31 31 31 27 28 28 28 26 24 19 15 17 15 12 19 16 16 12 12 12 13 14
29 29 29 29 27 28 28 29 28 28 25 24 24 20 21 15 13 24 22 20 18 18 17 20 29 39 38 33 29 29 28 28 26 25 28 24 20 17 16 16 14 12 11 11 13 11 12 11 15
27 29 30 30 29 28 28 29 28 26 25 24 23 21 22 22 15 21 16 18 18 16 16 17 24 34 37 39 31 27 28 23 26 23 20 23 21 17 14 14 16 13 15 14 14 11 12 15 14
30 31 30 30 30 30 26 32 29 25 25 24 27 22 22 21 18 17 13 15 14 17 13 10 9 25 34 30 35 18 23 23 23 18 16 17 19 17 13 13 12 15 14 16 17 17 15 14 17
32 32 30 28 30 34 27 32 25 25 23 24 23 21 20 18 17 8 20 15 18 18 13 10 12 26 28 24 25 25 19 23 14 19 17 17 15 15 13 14 15 15 11 10 13 15 15 15 14
29 24 33 31 29 29 29 33 26 26 25 25 20 20 18 21 11 10 19 18 20 17 16 13 14 25 26 21 18 22 18 17 24 14 14 15 16 15 17 15 15 14 15 16 15 15 14 14 13
22 30 30 28 26 28 31 29 27 24 26 24 21 16 15 22 15 10 20 24 3 4 2 5 13 22 23 19 18 18 15 16 16 15 14 13 14 14 14 15 16 14 13 15 13 14 14 14 14
27 31 33 29 27 28 26 25 28 23 21 22 20 15 17 21 16 15 17 12 8 5 6 11 17 17 22 19 19 17 18 15 16 14 14 12 10 12 14 16 14 12 14 15 13 14 13 11 9
34 32 30 29 28 24 23 26 26 22 22 20 19 17 16 19 13 10 12 13 10 10 10 11 14 17 21 18 19 18 18 19 17 17 16 14 13 11 14 12 13 13 13 13 12 13 12 10 12
31 31 28 31 25 27 24 26 25 24 25 20 19 20 15 15 18 20 6 13 13 13 14 14 16 20 20 17 20 14 18 4 10 5 7 14 11 10 11 11 11 9 11 12 12 13 14 10 12
29 28 29 28 23 20 19 19 25 20 21 20 20 17 16 16 21 16 6 11 15 15 15 16 17 19 19 19 15 12 9 9 10 12 10 8 8 8 8 9 9 9 7 8 12 13 15 12 11
34 21 27 28 25 21 23 14 29 17 17 16 13 14 16 15 15 8 15 15 18 18 17 18 18 19 16 18 15 12 10 8 5 4 1 3 6 8 8 8 7 8 8 8 8 11 11 13 13
26 26 29 26 19 19 26 19 29 19 19 17 16 17 17 13 13 11 17 19 20 19 20 20 20 17 17 15 12 14 12 3 3 3 1 3 6 8 7 8 7 8 9 9 9 10 9 12 14
31 23 17 19 17 21 17 19 23 21 19 18 18 15 14 10 13 18 17 14 18 20 21 21 20 17 16 13 10 7 6 3 1 3 2 4 4 2 5 6 6 6 8 5 7 9 9 10 11
29 25 16 25 17 19 21 26 20 21 21 19 15 10 12 16 14 16 15 14 18 21 22 21 20 18 16 14 12 10 8 7 4 3 2 3 1 3 6 5 4 3 4 6 7 8 8 8 9
30 28 31 22 21 19 16 18 30 27 20 14 7 12 14 14 15 15 15 15 20 22 22 22 20 18 17 15 12 10 7 3 0 2 1 2 4 6 7 5 5 5 5 6 7 7 5 5 5
31 21 25 19 25 24 20 22 14 11 15 12 13 9 11 16 16 15 15 14 21 22 21 21 19 18 16 15 12 11 7 3 2 1 3 4 5 7 8 5 4 5 6 5 3 4 4 6 5
24 25 23 21 18 16 15 14 12 2 9 6 9 13 12 17 16 16 15 17 21 22 21 19 18 17 16 15 11 9 7 4 4 5 5 5 6 9 7 6 6 5 7 5 5 4 5 7 6
29 25 25 19 24 17 13 15 5 2 5 5 11 15 19 17 16 16 16 15 20 19 20 18 18 17 16 14 13 15 7 8 6 6 6 6 8 8 7 6 7 7 6 4 2 5 5 7 8

GFSSGP_925_spd_042.txt.gz
Wind_Speed
6 3 3 2 2 3 3 6 4 9 3 5 3 6 6 2 5 4 8 29 22 31 35 33 29 26 25 22 20 19 17 16 15 14 13 12 10 9 7 8 8 7 6 5 4 4 3 3 3
5 6 1 1 3 1 4 4 6 3 6 11 10 5 5 1 2 8 13 26 26 32 35 34 31 27 26 24 22 21 19 18 16 14 13 12 11 9 9 9 8 7 6 6 6 6 5 5 5
6 3 2 3 3 5 4 4 2 2 2 4 2 2 6 3 2 14 7 30 28 31 34 34 31 29 28 26 24 23 21 20 18 17 16 14 12 11 10 10 9 9 8 8 8 8 7 7 7
5 2 3 2 7 7 6 6 6 3 5 2 0 4 3 5 10 18 22 31 30 31 34 34 33 32 31 30 28 27 25 23 21 20 18 16 14 12 11 10 9 10 10 10 10 10 10 9 9
1 2 1 3 6 8 4 8 13 5 3 6 1 2 3 1 19 25 31 33 32 32 34 35 35 36 36 35 33 31 30 28 26 23 21 19 16 15 12 10 9 10 11 11 12 11 10 11 13
1 2 1 5 6 10 3 9 5 4 5 6 3 4 4 13 28 31 34 32 30 31 36 37 36 36 36 35 35 33 32 31 29 27 24 22 19 16 14 12 10 10 11 12 13 12 12 14 14
3 2 4 4 6 11 3 6 4 11 10 2 3 7 1 5 26 34 35 34 33 31 34 37 38 37 37 37 37 36 34 32 30 28 26 23 20 18 16 13 11 10 11 12 13 14 14 14 14
4 3 4 4 4 10 3 5 4 7 7 4 6 4 4 8 17 29 32 34 34 33 33 37 38 40 41 40 39 38 36 35 33 31 28 24 22 20 18 16 15 12 12 12 14 14 14 14 14
6 2 5 6 5 8 7 14 15 9 5 1 6 7 8 16 17 17 19 22 32 32 35 37 39 41 43 42 42 39 38 37 34 33 31 27 25 23 21 19 16 16 14 14 15 14 15 15 15
5 7 8 8 7 6 14 7 22 7 10 8 4 4 16 20 17 13 9 12 21 33 39 38 39 40 43 44 44 44 42 40 39 37 34 32 29 25 22 19 17 18 18 17 17 14 14 13 15
7 11 13 15 12 11 16 15 14 14 13 8 3 6 9 8 6 12 16 18 12 14 31 39 41 43 45 45 44 43 44 43 42 40 37 35 31 27 24 20 18 18 18 20 20 18 17 16 14
9 13 16 18 17 16 18 14 18 16 14 11 10 7 5 8 9 9 12 20 19 20 17 25 36 44 47 45 46 46 44 45 44 44 40 37 33 29 25 22 20 19 21 21 22 19 18 17 16
19 10 11 13 15 18 18 20 20 22 20 15 9 9 9 9 10 18 25 26 25 21 21 21 28 37 46 47 45 43 44 45 46 43 42 38 34 32 25 22 20 17 18 20 21 20 19 18 18
3 7 17 13 15 16 18 21 19 21 18 18 16 13 11 10 10 14 19 24 26 27 20 19 23 32 41 44 45 47 44 44 43 42 41 39 36 30 24 21 21 19 17 19 20 19 19 20 20
10 12 15 19 8 8 7 21 25 21 16 18 11 9 10 11 13 12 25 23 28 25 24 23 22 27 35 39 43 44 42 40 39 37 33 33 34 29 27 24 19 18 17 18 21 19 16 18 20
4 5 17 15 16 8 6 32 16 7 8 14 14 17 21 15 13 25 33 27 25 22 24 23 22 24 31 35 38 40 40 39 34 33 31 29 28 29 27 24 18 15 15 19 18 17 17 18 20
6 17 19 19 7 4 14 37 14 11 14 17 13 16 14 16 14 23 34 28 22 26 27 21 22 27 32 33 34 37 37 33 30 29 30 27 27 28 28 22 17 15 15 17 18 18 18 18 19
12 20 19 18 6 14 19 32 21 20 23 22 23 24 23 23 18 23 33 27 28 27 27 18 24 29 28 28 24 29 27 24 24 27 27 26 27 28 23 22 13 14 16 18 18 17 18 18 17
7 17 8 5 11 14 19 23 18 16 9 13 18 17 18 19 16 23 30 28 17 19 17 20 24 27 27 29 26 26 26 24 23 24 23 20 26 23 24 18 14 17 19 21 20 19 17 17 14
13 15 14 9 9 8 13 22 23 22 18 19 21 19 18 8 10 12 13 13 22 24 20 20 24 25 26 30 29 26 25 21 19 18 19 20 23 22 21 17 16 17 18 19 17 15 15 14 13
16 18 14 10 10 22 13 12 17 20 13 16 13 13 10 10 14 14 8 18 21 23 23 24 23 25 25 25 23 19 18 17 16 17 16 17 19 20 19 18 15 15 16 16 13 15 15 11 14
19 9 12 15 11 16 7 17 21 22 25 21 14 15 10 14 12 9 7 7 20 21 21 22 24 23 25 25 24 24 22 12 14 16 15 15 17 18 15 14 12 13 13 12 11 11 13 12 13
20 11 13 14 10 16 17 7 29 7 18 12 14 10 16 17 10 14 10 13 17 26 25 23 27 26 27 25 24 23 19 15 15 15 13 16 14 12 12 12 11 10 11 9 9 10 13 16 12
5 9 12 16 3 11 9 10 28 16 22 18 7 14 12 9 10 1 8 18 20 24 26 28 29 27 27 23 19 19 19 15 16 17 16 13 10 9 11 13 10 7 8 8 9 11 13 15 16
5 2 2 3 7 15 11 9 23 7 5 10 14 16 12 12 6 9 14 13 17 21 27 30 29 23 23 24 20 17 16 18 19 16 13 10 8 8 7 9 9 7 7 8 9 11 12 12 14
6 9 5 7 4 8 7 12 16 16 26 21 22 18 14 8 9 11 14 14 17 22 27 25 27 24 25 23 21 19 16 14 12 11 9 6 6 6 8 9 8 5 5 6 7 8 10 10 11
5 9 7 5 14 1 6 9 18 23 24 21 19 12 13 7 11 13 11 12 19 20 25 30 28 26 25 23 19 14 13 12 11 7 4 5 6 8 10 8 6 7 7 6 6 7 8 8 8
8 3 4 3 6 8 6 6 10 7 14 10 12 16 7 8 11 12 13 13 18 22 28 28 26 25 23 20 16 13 12 11 8 6 6 8 9 11 10 8 8 7 8 8 7 6 6 7 7
1 4 5 4 3 8 6 9 8 12 10 12 17 10 16 16 15 14 13 16 19 22 26 27 26 24 22 19 16 15 12 13 10 7 8 10 12 9 10 10 10 8 8 7 6 6 8 9 11
6 9 5 5 11 5 11 16 9 9 10 8 10 9 14 18 17 15 15 13 18 21 23 26 26 25 23 21 16 14 13 12 10 9 9 11 11 11 9 11 10 8 8 6 6 8 10 10 11

GFSSGP_925_spd_045.txt.gz
Wind_Speed
4 4 4 2 3 4 4 6 3 5 1 4 3 8 5 2 6 5 2 28 17 29 36 34 30 28 26 23 22 21 20 20 19 17 16 15 14 13 12 11 9 7 7 7 6 5 3 2 2
6 6 1 2 4 1 5 5 7 6 3 6 6 5 4 1 2 1 9 29 18 28 37 35 32 30 28 26 25 23 22 21 20 19 17 15 13 12 11 10 9 8 7 6 6 5 3 3 2
9 4 2 4 4 6 5 6 2 6 8 3 2 4 8 3 2 6 6 30 23 30 36 36 34 33 31 29 27 25 24 22 21 20 19 17 16 14 13 12 11 10 10 8 7 6 5 5 4
6 2 2 2 9 6 5 3 4 8 8 6 1 6 2 1 7 13 15 28 28 33 37 36 36 35 33 31 28 27 26 24 22 20 18 17 15 13 13 13 12 11 11 10 8 7 7 7 7
3 3 2 3 6 5 4 5 3 10 5 3 2 2 0 0 5 13 27 30 30 34 37 37 36 36 34 32 31 30 28 26 24 22 21 19 17 15 14 13 12 11 13 11 10 9 8 10 10
2 2 1 6 5 4 6 5 5 4 7 4 4 5 3 3 12 19 28 28 30 33 37 38 38 36 36 35 34 33 31 29 28 25 23 21 19 18 15 13 11 10 11 12 11 11 9 12 12
6 3 4 3 3 3 4 4 2 4 6 5 8 5 3 4 18 20 23 27 30 33 37 37 39 39 37 37 36 35 34 32 30 29 27 25 22 19 17 14 12 10 10 10 10 10 10 11 12
4 4 4 4 4 4 4 1 2 6 8 7 4 2 4 6 23 23 26 27 28 31 35 38 40 41 41 41 39 38 37 36 34 32 30 27 25 22 19 17 14 12 10 10 10 10 9 11 12
5 3 5 6 6 5 6 5 2 5 4 6 6 4 8 12 21 20 16 22 26 30 31 35 39 41 43 44 43 41 40 38 36 35 33 30 29 25 22 20 16 14 12 12 10 12 10 12 12
5 5 10 7 10 3 6 9 8 4 3 5 5 5 1 6 13 14 12 18 28 32 36 37 40 43 45 45 44 42 42 42 42 40 37 35 33 29 24 22 18 16 15 14 13 13 12 12 12
7 9 18 8 9 3 6 8 5 8 8 7 3 11 8 2 10 10 18 23 34 44 36 41 43 43 46 46 46 45 46 46 45 43 41 38 35 30 27 24 21 19 17 16 17 17 16 15 14
4 13 15 16 11 4 14 6 10 14 12 16 14 7 8 11 10 9 13 26 28 29 39 43 46 46 47 46 46 47 43 45 45 46 43 40 38 34 30 28 23 22 19 19 18 19 18 17 15
15 7 9 18 15 10 10 17 14 19 14 13 15 15 12 11 11 19 21 21 23 23 26 33 41 45 49 48 46 45 46 46 45 42 43 42 41 37 32 30 25 23 22 21 20 21 20 18 16
2 11 15 11 10 6 12 20 15 14 19 14 11 11 11 11 12 11 17 21 24 26 32 27 32 40 43 47 48 49 43 40 39 42 42 42 41 36 32 30 28 25 23 20 19 19 19 19 17
4 7 10 10 4 7 1 23 24 18 15 16 18 17 10 10 10 11 21 25 28 29 32 28 30 36 37 43 46 45 42 39 39 41 41 38 38 35 33 31 28 25 23 20 18 19 19 19 20
4 4 14 13 11 6 7 29 11 11 14 19 12 9 9 12 9 21 27 31 37 38 34 35 27 33 37 40 41 42 40 38 37 37 36 34 32 33 30 29 28 23 20 19 20 20 18 20 19
5 16 17 9 5 8 16 30 14 15 12 16 13 14 14 15 11 20 33 39 43 46 38 35 28 33 35 36 37 35 35 34 34 32 30 29 27 27 26 26 26 20 17 19 21 20 19 19 19
10 11 11 11 4 11 15 28 12 10 13 17 17 17 19 19 18 24 33 39 41 40 34 34 28 25 30 33 30 29 28 28 27 26 27 25 24 22 22 23 23 20 18 18 20 20 20 21 21
4 9 3 8 10 14 19 24 20 15 11 17 18 18 18 11 11 23 30 37 34 35 27 29 26 26 27 26 25 24 27 25 25 23 22 22 21 20 22 22 23 20 19 19 20 20 20 21 18
6 5 3 7 8 4 10 17 10 10 13 15 18 17 16 14 10 16 20 24 32 30 25 28 29 27 26 25 24 16 24 21 20 19 19 19 19 21 22 23 24 22 21 20 20 20 17 13 14
6 11 8 5 9 17 12 18 12 12 8 12 17 10 10 9 14 15 10 18 23 24 25 25 24 24 23 21 20 21 20 21 18 20 21 21 21 25 24 24 25 21 19 18 16 15 17 9 12
11 4 5 8 5 10 2 17 18 21 23 20 19 18 9 11 14 10 11 9 18 24 18 17 18 21 21 25 27 30 20 17 15 21 19 20 20 24 25 24 22 16 14 13 11 10 11 8 9
11 10 9 11 6 4 7 5 23 8 22 17 15 17 13 18 11 13 11 12 16 16 17 17 20 22 24 27 28 28 23 16 17 15 15 16 15 18 19 18 15 13 12 11 9 9 11 12 10
1 4 7 7 3 6 8 9 24 9 20 19 21 11 16 10 10 10 7 6 10 16 19 23 24 25 25 23 22 21 18 16 15 14 14 14 15 15 14 13 11 8 8 9 8 9 10 11 13
3 4 1 1 3 10 12 9 22 6 3 5 8 9 11 11 9 7 7 7 11 19 22 25 27 26 23 21 19 19 18 17 18 18 17 15 13 12 11 11 10 8 7 8 9 10 11 12 14
5 8 4 6 4 7 6 13 16 12 23 21 19 13 10 10 8 9 9 8 10 15 22 22 28 27 23 22 21 18 19 19 19 18 15 11 9 7 8 8 8 7 7 9 9 10 10 11 12
2 4 7 3 3 2 6 10 18 20 15 14 10 9 10 9 9 9 7 7 13 16 19 27 28 27 26 24 24 22 21 20 18 14 10 8 7 7 8 8 7 7 7 7 7 8 9 9 9
6 4 3 1 5 5 6 8 12 6 19 20 15 9 11 10 9 9 10 11 14 20 24 27 28 30 29 27 23 19 18 16 14 12 9 8 8 9 9 8 7 8 6 7 6 6 8 9 10
1 3 4 3 5 4 3 6 7 12 9 5 9 11 12 10 8 11 11 12 18 21 25 27 29 31 28 24 20 18 17 14 12 9 8 10 11 11 9 8 8 7 5 6 7 7 7 7 8
4 4 3 6 7 11 1 8 8 3 7 7 9 10 9 0 6 10 13 12 15 19 22 23 28 29 25 21 20 17 15 15 11 9 10 11 11 8 8 8 8 7 7 6 7 7 8 8 9

GFSSGP_925_spd_048.txt.gz
Wind_Speed
5 4 3 3 3 4 3 7 3 5 3 2 5 6 11 5 7 5 2 25 14 29 30 33 31 29 28 26 24 24 23 22 21 20 19 18 17 15 14 13 13 12 11 9 6 3 2 1 0
7 8 3 2 3 3 5 5 5 8 5 7 2 3 3 5 4 2 5 25 17 30 32 36 33 31 28 27 26 25 23 22 21 20 19 18 17 16 14 12 11 11 11 10 8 5 3 1 0
11 3 3 4 4 5 6 5 7 5 8 5 3 3 6 4 1 4 9 26 19 30 32 36 35 32 30 29 28 26 25 23 21 20 19 18 16 15 14 13 12 11 10 8 7 5 3 2 1
7 3 4 2 8 6 6 3 4 8 8 4 3 2 3 4 8 13 12 28 22 30 33 34 34 34 33 31 30 28 27 25 23 21 19 18 16 14 12 11 10 9 9 8 6 4 4 4 3
3 2 2 2 6 6 5 6 5 7 3 3 3 3 2 2 10 15 15 30 25 30 34 35 35 35 34 32 32 30 29 27 25 23 21 20 18 16 14 12 11 9 9 9 7 6 6 6 6
3 2 1 7 7 5 6 8 3 4 4 4 2 4 3 2 8 13 19 29 25 29 34 36 35 36 35 34 33 32 31 30 28 26 24 21 19 17 14 11 11 10 11 10 8 7 7 9 8
5 4 5 3 3 4 6 6 5 4 5 2 4 5 4 3 8 11 17 26 24 26 32 35 35 38 36 36 36 35 33 32 30 28 26 24 21 19 17 14 11 11 11 9 9 9 8 8 9
4 4 4 5 4 6 3 4 1 1 3 5 3 3 3 6 12 13 18 24 21 23 29 34 36 38 39 40 39 38 36 34 32 31 29 27 24 22 19 17 14 12 12 11 10 9 8 8 8
4 3 5 7 7 4 1 5 7 5 3 5 2 3 4 7 7 9 13 18 20 22 27 32 36 38 41 41 40 40 38 37 35 34 32 30 28 25 23 21 17 15 13 12 11 10 9 9 10
5 5 10 6 12 5 5 2 2 6 6 4 3 2 15 7 3 7 9 15 22 26 31 32 34 39 41 43 42 39 40 39 39 39 37 34 33 28 26 23 20 17 15 13 13 11 10 10 11
7 10 13 8 9 5 9 10 6 2 7 6 1 7 5 1 2 9 14 23 31 36 32 35 38 39 43 44 44 43 43 43 42 42 39 37 35 31 29 26 23 20 17 17 16 15 14 14 13
6 14 16 6 6 4 14 8 4 8 12 7 10 8 6 9 8 9 15 27 33 32 34 35 39 41 42 43 45 44 44 44 44 44 42 39 37 34 32 29 26 23 21 19 17 16 16 17 15
13 5 9 15 12 12 10 14 15 16 11 11 9 10 12 10 9 15 19 19 22 24 32 38 39 40 44 45 45 45 45 46 45 43 44 42 40 39 35 33 29 25 23 20 19 18 18 18 17
3 12 17 8 5 6 7 15 5 9 11 14 14 15 11 9 9 13 15 18 20 23 25 25 30 35 39 44 45 47 46 44 43 42 43 42 41 40 37 34 31 27 25 22 21 19 19 20 19
2 5 3 6 4 7 2 23 21 12 13 16 16 17 13 11 12 11 22 21 25 26 28 28 26 25 34 40 42 43 43 42 41 40 38 38 40 39 35 34 33 29 25 23 21 20 20 20 20
6 3 13 13 8 6 9 28 18 8 13 18 19 17 14 12 9 19 21 21 27 32 37 39 34 29 30 37 39 40 42 41 39 36 34 33 33 35 34 34 35 27 26 23 22 21 21 20 20
4 15 14 12 8 11 15 25 7 7 8 13 11 11 9 9 11 16 23 28 36 37 38 37 33 31 31 32 36 34 34 33 33 31 30 28 29 31 32 34 30 24 23 22 20 21 21 21 20
10 12 8 7 7 10 12 27 15 6 7 9 10 12 12 13 15 15 25 33 35 40 37 34 32 28 25 26 29 25 25 26 26 27 25 24 26 27 28 24 24 22 21 19 18 19 20 21 19
3 11 2 3 5 8 19 22 16 9 11 17 18 20 21 21 15 17 27 32 38 33 33 29 26 20 21 23 23 21 24 23 21 20 21 22 23 24 22 20 19 21 21 20 18 20 22 22 18
2 3 1 4 4 2 6 11 9 6 10 11 16 17 16 15 8 11 23 30 30 31 30 27 21 19 22 26 25 13 19 20 19 17 18 20 22 22 23 24 22 23 22 20 18 20 16 13 14
5 5 3 2 7 6 5 14 10 7 11 13 16 13 11 13 10 13 13 19 29 30 32 25 22 20 22 24 19 14 14 11 16 19 20 20 21 21 22 21 20 21 19 18 17 17 16 9 8
5 7 5 6 5 6 2 12 13 9 15 13 18 18 17 9 13 15 9 12 25 33 27 20 17 17 20 19 21 23 20 14 14 21 20 20 19 18 18 18 17 15 16 15 13 12 13 11 8
7 2 4 2 3 3 2 4 6 5 11 17 19 21 19 13 16 13 12 14 27 24 20 15 15 17 20 21 23 26 24 17 21 20 20 18 14 15 18 16 15 15 14 11 11 11 12 14 11
4 6 2 2 3 4 6 6 18 9 15 13 14 15 11 10 10 11 10 15 17 10 10 14 18 19 23 24 25 25 26 22 22 19 17 15 13 13 14 14 13 12 11 11 11 10 10 12 10
2 5 2 2 3 11 13 9 21 5 3 3 6 7 8 9 9 9 9 7 7 10 14 18 21 23 23 23 24 22 22 22 23 22 19 17 15 14 14 13 12 11 10 9 9 8 9 10 11
6 7 5 6 4 4 8 11 9 14 24 22 13 8 7 9 9 10 10 8 7 14 19 20 23 25 23 23 21 19 19 19 18 17 17 15 13 11 11 11 9 9 8 7 7 7 8 10 11
4 4 5 3 2 1 4 7 11 14 19 11 5 6 9 10 10 11 8 7 12 16 20 25 26 24 22 21 21 20 18 18 18 16 14 11 9 8 10 9 9 8 6 6 6 7 8 9 10
4 5 3 2 4 4 5 6 8 8 8 14 8 8 10 11 11 10 5 9 12 19 24 26 28 26 24 23 22 22 21 19 18 15 12 9 9 10 11 11 9 8 7 5 4 5 6 8 9
3 2 2 4 5 4 2 5 7 14 2 5 6 8 10 10 8 3 6 10 15 20 24 26 27 26 26 25 23 22 19 17 15 12 10 10 11 13 12 10 9 8 6 5 4 5 7 8 9
1 3 1 4 7 7 3 7 2 6 5 5 8 13 13 5 4 3 6 10 13 17 20 24 27 29 27 24 22 21 19 16 13 11 10 12 14 12 10 9 9 7 6 4 5 6 7 6 7